weather.gov     
National Weather Service

Hourly Weather Roundup
NWS Homepage
This page is being discontinued on March 12, 2014.
The same data is available at this site. Please update your bookmarks.
Thank you, and we apologize for the inconvenience.
Please send an email to SR-SRH.Webmaster@noaa.gov with any concerns.


Current Version
Previous Version:    01  02  03  04  05  06  07  08  09  10  11  12  13  14  15  16  17  18  19  20  21  22  23  24  25  26  27  28  29  30  
   31  32  33  34  35  36  37  38  39  40  41  42  43  44  45  46  47  48  49  50  51  52  53  54  55  56  57  58  59  60  
[Printable]
502
NZUS43 KILX 241710
HWRILX

AREA WEATHER ROUNDUP
NATIONAL WEATHER SERVICE, LINCOLN IL
1100 AM CST MON NOV 24 2014


CITY           SKY/WX    TMP DP  RH WIND       PRES   REMARKS
BLOOMINGTON    LGT SNOW  32  31  96 W25G31    29.49R FOG     WCI  19
CHAMPAIGN      CLOUDY    35  34  96 SW29G38   29.54R FOG     WCI  22
DECATUR        CLOUDY    35  28  75 W20G29    29.56R WCI  24
FLORA          MOSUNNY   40  31  70 W25G33    29.66R WCI  29
GALESBURG      CLOUDY    30  26  86 W23G38    29.49R WCI  17
JACKSONVILLE   CLOUDY    35  28  74 W22G28    29.60R WCI  23
LACON          CLOUDY    32  28  85 W14       29.46R WCI  22
LAWRENCEVILLE  CLOUDY    42  36  79 SW22G30   29.64R WCI  33
LITCHFIELD     CLOUDY    36  28  73 W24G33    29.62R WCI  24
$$


CITY           SKY/WX    TMP DP  RH WIND       PRES   REMARKS
LINCOLN        CLOUDY    34  32  90 W8G16     29.55R WCI  27
MACOMB         CLOUDY    31  28  88 W26       29.55R WCI  18
MATTOON        CLOUDY    36  29  75 W18G28    29.57R WCI  26
MT CARMEL AP   CLOUDY    45  36  70 SW22G28   29.64R
OLNEY-NOBLE AP CLOUDY    41  32  70 W14G23    29.65R WCI  33
PARIS          CLOUDY    37  34  89 W22G32    29.57R WCI  26
PEORIA         LGT SNOW  34  29  82 W14G26    29.50R WCI  25
PONTIAC        LGT SNOW  34  32  93 W30G36    29.44R WCI  20
RANTOUL        LGT RAIN  37  34  89 W26G38    29.50R WCI  25
ROBINSON       CLOUDY    40  36  83 W24G30    29.63R WCI  30
SPRINGFIELD    CLOUDY    35  32  88 W26G32    29.58R WCI  22
TAYLORVILLE    CLOUDY    34  28  80 W21G29    29.60R WCI  22
$$

...REGIONAL REPORTS...


CITY           SKY/WX    TMP DP  RH WIND       PRES   REMARKS
CHICAGO O`HARE SNOW      32  30  92 SW20G37   29.26R VSB 1/2 WCI  20
KANKAKEE       LGT SNOW  33  32  94 W21G38    29.40R WCI  22
MOLINE         CLOUDY    30  24  78 W26G37    29.45R WCI  16
MOUNT VERNON   CLOUDY    41  28  60 SW29G35   29.70R WCI  30
PITTSFIELD     CLOUDY    34  26  74 W22G29    29.62R WCI  22
QUINCY         CLOUDY    32  23  69 W17G24    29.59R WCI  21
ROCKFORD       SNOW      31  29  92 W24G33    29.30R VSB 1/2 WCI  17
$$


CITY           SKY/WX    TMP DP  RH WIND       PRES   REMARKS
BURLINGTON     CLOUDY    30  26  85 W20G28    29.53R WCI  17
CEDAR RAPIDS   FRZ RAIN  25  23  92 W25G38    29.47R FOG     WCI   9
DES MOINES     FLURRIES  27  17  66 NW23G33   29.60R WCI  12
KIRKSVILLE     CLOUDY    31  23  72 W18G28    29.63R WCI  19
OTTUMWA        CLOUDY    27  20  75 W23G32    29.57R WCI  12
ST LOUIS       PTSUNNY   40  27  59 W25G35    29.66R WCI  29
$$


CITY           SKY/WX    TMP DP  RH WIND       PRES   REMARKS
TERRE HAUTE    CLOUDY    39  33  79 W21G29    29.59R WCI  29
EVANSVILLE     CLOUDY    45  34  65 SW18      29.70R
INDIANAPOLIS   CLOUDY    37  33  85 SW26G37   29.53R WCI  25
LAFAYETTE      CLOUDY    36  32  85 W21G35    29.47R WCI  25
MADISON        LGT SNOW  33  32  96 W6G18     29.21R VSB 1   WCI  28
MILWAUKEE      LGT RAIN  41  37  86 W14G23    29.13R FOG     WCI  33
$$






U.S. Dept. of Commerce
NOAA National Weather Service
1325 East West Highway
Silver Spring, MD 20910
E-mail: w-nws.webmaster@noaa.gov
Page last modified: May 16, 2007
NATIONAL WEATHER SERVICE: for Safety, for Work, for Fun - FOR LIFE